CZ-3B DEB, 42471

Orbit data source: Space-Track

CZ-3B DEB, 42471 is space debris in HEO originally from a launch on Mon, 19 Dec 2011 UTC launched from the Xichang Space Center, China (XSC). Debris objects in space refer to the collection of defunct objects orbiting the Earth. Examples of debris include non-operational satellites, rocket bodies, and fragments generated from explosions, collisions, or faulty payload assembly.

Loading next visibility...
Identifier
42471, 2011-077AL
Orbit
HEO
Country
Flag of CNCN / PRC
Related business
Manufacturer
CALT
Mission
Spacecraft
Bus & Motor
Unknown
Mass
Unknown
Launch date (UTC)
2011-12-19 (15 years ago)
Launch vehicle
Unknown
Launch site
Xichang Space Center, China (XSC)
Object type
Payload
Rocket body
Debris
Shape & HBR
Unknown shape, 0.2 m
Radar Cross Section
Medium (>0.1 m² and <1 m²)

Expand to show TLE details & history
Last TLE update: 3 days ago

TLE from 3 days ago
0 CZ-3B DEB
1 42471U 11077AL  26170.57171030 -.00000166  00000-0  27805-2 0  9992
2 42471  26.3959 309.3150 7464999 124.8831 328.6684  1.89277177 34733
Epoch: 2026-06-19T13:43Z
TLE epoch observation values (Epoch: 2026-06-19T13:43:15.769Z)
Latitude
Longitude
-164.37488°
Altitude
14,918.757 km
Speed
4.795 km/s
True Right ascension
20h 36m 57s
True Declination
0° 00' 00"
Sunlit
Object was in daylight at epoch
Visualization orbit readout
Latitude
Unknown
Longitude
Unknown
Altitude
Unknown
Speed
Unknown
Apparent Right ascension
Unknown
Apparent Declination
Unknown
Sunlit
N/A
Visualization observer readout
Local Sidereal Time
23:18:35
Azimuth
Unknown
Elevation
Unknown
Doppler factor
Unknown
Orbital elements
Apogee altitude
41,842.371 km
Perigee altitude
620.949 km
Semi-major axis
27,609.797 km
Eccentricity
0.7465
Inclination
26.3959°
RAAN
309.315°
Arg. of periapsis
124.8831°
True anomaly
235.33228°
Mean anomaly
328.6684°
Eccentric anomaly
287.98763°
Mean motion
0.47309 °/min
Orbital period
760.95 mins
BSTAR
0.0027805
Loading maneuver chart data...
Computing Atmospheric mass density...
Loading historical data...
Loading historical data...
Loading historical data...
Loading historical data...
Loading historical data...
Loading historical data...
Loading historical data...

Documentation

Showing up to 5 results
|